Belo Horizonte, Brazil

12:10 PM BRST on February 12, 2016 (GMT -0200)
Tancredo Neves International | | Change Station
CLOSE
Current Station
Airport
Location: Belo Horizonte,
Elevation: 2713 ft
Nearby Weather Stations

Elev 2713 ft 19.64 °S, 43.97 °W | Updated 10 minutes ago

Scattered Clouds
Scattered Clouds
79 °F
Feels Like 79 °F
N
7
Wind Variable Wind from North

Today
High -- | Low -- °F
--% Chance of Precip.
Yesterday
High -- | Low -- °F
Precip. -- in
Pressure 30.04 in
Visibility 6.2 miles
Clouds Scattered Clouds 2500 ft
Scattered Clouds 10000 ft
Dew Point 66 °F
Humidity 65%
Rainfall 0.00 in
Snow Depth Not available.
6:46 AM 7:33 PM
Waxing Crescent, 21% visible
METAR SBCF 121400Z 36006KT 9999 SCT025 SCT100 26/19 Q1017
Pressure 30.04 in
Visibility 6.2 miles
Clouds Scattered Clouds 2500 ft
Scattered Clouds 10000 ft
Dew Point 66 °F
Humidity 65%
Rainfall 0.00 in
Snow Depth Not available.
6:46 AM 7:33 PM
Waxing Crescent, 21% visible
METAR SBCF 121400Z 36006KT 9999 SCT025 SCT100 26/19 Q1017

10-Day Weather Forecast

No radar image for this location.
×

Almanac

Astronomy

Feb. 12, 2016 Rise Set
Actual Time
Civil Twilight
Nautical Twilight
Astronomical Twilight
Moon
Length of Visible Light
Length of Day
Tomorrow will be .
, % of the Moon is Illuminated

Today's Extremes

Country Highs Country Lows

Community

WunderPhotos

Upload Photos

1,892,313 photos uploaded!

WunderBlog® & News

Nearby

Air Quality

  Air Quality AQ Index Pollutant
Not available.

Snow Depth

Station Depth Elevation

Earthquake Activity

City Distance Mag. Time & Date
Minimum magnitude displayed is 2.5.

Coastal Water Temperatures

Place Temperature

Stations

Nearby Weather Stations

Station Location Temp. Windchill Dew Point Humidity Wind Precip. Elev Updated Type